Home > Weather > Delta > Past weeks

Flag for Canada Weather for the Past 2 Weeks in Delta, British Columbia, Canada

Now
73 °F

Passing clouds.


Feels Like: 77 °F
Forecast: 51 / 78 °F
Wind: 7 mph from West

Location: Vancouver International Airport

Current Time: May 2, 2016 at 3:04:30 PM

Latest Report: May 2, 2016 at 2:00 PM


Visibility: 30 mi

Pressure: 29.94 "Hg

Humidity: 50%

Dew Point: 54 °F

Location of DeltaLocation

Historic Weather in Delta — Graph

°F

Delta Temperature Yesterday

Maximum temperature yesterday: 66 °F (at 3:00 PM)
Minimum temperature yesterday: 48 °F (at 4:00 AM)
Average temperature yesterday: 58 °F

High & Low Weather Summary for the Past Weeks

 TemperatureHumidityPressure
High72 °F (Apr 18, 3:00 PM)100% (Apr 22, 3:00 AM)30.38 "Hg (Apr 22, 3:00 AM)
Low45 °F (Apr 18, 6:00 AM)51% (Apr 25, 6:00 PM)29.59 "Hg (Apr 22, 6:00 AM)
Average56 °F76%30.01 "Hg
* Reported Apr 17 1:00 PM — May 2 1:00 PM, Delta, Weather by CustomWeather, © 2016

Note: Actual official high and low records may vary slightly from our data, if they occured in-between our weather recording intervals... More about our weather records

Advertising

Delta Weather History for the Previous 24 Hours

Scroll right to see more
 ConditionsComfort  
Time TempWeatherWind HumidityBarometerVisibility
1:00 PM
Mon, May 2
68 °FPassing clouds.7 mph64%29.96 "Hg30 mi
12:00 PM68 °FSunny.7 mph56%29.98 "Hg30 mi
11:00 AM68 °FSunny.7 mph53%29.98 "Hg30 mi
10:00 AM66 °FSunny.6 mph60%29.98 "Hg30 mi
9:00 AM63 °FSunny.5 mph56%29.99 "Hg30 mi
8:00 AM59 °FSunny.5 mph68%29.99 "Hg30 mi
7:00 AM54 °FSunny.3 mph77%29.98 "Hg30 mi
6:00 AM52 °FClear.2 mph72%29.96 "Hg30 mi
5:00 AM52 °FClear.5 mph67%29.97 "Hg30 mi
4:00 AM52 °FClear.3 mph77%29.96 "Hg20 mi
3:00 AM54 °FClear.3 mph77%29.96 "Hg20 mi
2:00 AM52 °FClear.3 mph88%29.96 "Hg20 mi
1:00 AM52 °FClear.3 mph94%29.96 "Hg20 mi
12:00 AM57 °FClear.5 mph82%29.95 "Hg20 mi
11:00 PM
Sun, May 1
57 °FClear.2 mph94%29.95 "Hg20 mi
10:00 PM55 °FClear.3 mph88%29.94 "Hg30 mi
9:00 PM57 °FSunny.6 mph82%29.94 "Hg30 mi
8:00 PM63 °FSunny.7 mph68%29.94 "Hg30 mi
7:00 PM66 °FSunny.7 mph60%29.96 "Hg30 mi
6:00 PM66 °FSunny.7 mph64%29.99 "Hg30 mi
5:00 PM66 °FSunny.8 mph64%30.01 "Hg30 mi
4:00 PM66 °FPassing clouds.8 mph56%30.04 "Hg30 mi
3:00 PM66 °FPassing clouds.8 mph56%30.07 "Hg30 mi
Weather by CustomWeather, © 2016

See weather overviewHow to use our weather pages